Regional Weather Roundup
Issued by NWS

Home | Current Version | Previous Version | Text Only | Print | Product List | Glossary Off
Versions: 1 2 3 4 5 6 7 8 9 10 11 12 13 14 15 16 17 18 19 20 21 22 23 24 25 26 27 28 29 30 31 32 33 34 35 36 37 38 39 40 41 42 43 44 45 46 47 48 49 50

000
ASUS43 KLSX 250907
RWRMO

WEATHER SUMMARY FOR MISSOURI
NATIONAL WEATHER SERVICE SPRINGFIELD MO
400 AM CDT MON MAY 25 2015

NOTE: "FAIR" INDICATES FEW OR NO CLOUDS BELOW 12,000 FEET WITH NO
       SIGNIFICANT WEATHER AND/OR OBSTRUCTIONS TO VISIBILITY.
       CURRENT SKY AND/OR WEATHER CONDITIONS ARE NOT AVAILABLE FOR
       CHILLICOTHE AND FARMINGTON.

MOZ001>031-035>038-043-044-053-054-251000-
...NORTHERN AND WESTERN MISSOURI...

CITY           SKY/WX    TMP DP  RH WIND       PRES   REMARKS
KANSAS CTY INT CLOUDY    61  61 100 SE9       29.83F
KANSAS C DTWN  CLOUDY    63  60  90 S3        29.84S
LEE`S SUMMIT   CLOUDY    62  60  93 S5        29.85F
ST JOSEPH      CLOUDY    63  62  97 S6        29.82F
CHILLICOTHE      N/A     64  63  96 SW5       29.85R
KIRKSVILLE     CLOUDY    63  63 100 SW6       29.82R

$$
MOZ066>068-077>081-088>096-101>105-251000-
...SOUTHWEST MISSOURI...

CITY           SKY/WX    TMP DP  RH WIND       PRES   REMARKS
SPRINGFIELD    PTCLDY    62  60  93 S7        29.92S
JOPLIN         MOCLDY    62  61  96 S8        29.91R

$$
MOZ032>034-039>042-045>050-055>058-069>072-251000-
...CENTRAL MISSOURI...

CITY           SKY/WX    TMP DP  RH WIND       PRES   REMARKS
COLUMBIA       CLOUDY    65  63  93 SW17      29.85R
JEFFERSON CITY CLOUDY    66  62  87 SW12G21   29.86R
ROLLA          CLOUDY    65  62  90 SW16      29.89R
SEDALIA        CLOUDY    63  61  93 SW7       29.88S
WHITEMAN AFB   CLOUDY    62  61  97 SW8       29.86S
WARRENSBURG    CLOUDY    61  59  94 S3        29.86S
OSAGE BEACH    CLOUDY    63  61  94 SW9       29.91R

$$
MOZ051-052-059>065-251000-
...EAST CENTRAL MISSOURI...

CITY           SKY/WX    TMP DP  RH WIND       PRES   REMARKS
ST LOUIS INTL  CLOUDY    71  65  81 S12G20    29.89R
SPIRIT OF STL  CLOUDY    69  66  90 VRB3      29.87R
ST CHARLES     CLOUDY    69  66  90 S13       29.86R

$$
MOZ072>076-082>087-097>100-106>115-251000-
...SOUTH CENTRAL AND SOUTHEAST MISSOURI...

CITY           SKY/WX    TMP DP  RH WIND       PRES   REMARKS
CAPE GIRARDEAU LGT RAIN  69  67  93 S18G25    29.98R
FARMINGTON     CLOUDY    66  64  94 S10       29.98R
POPLAR BLUFF   CLOUDY    69  67  93 S13       29.97R
WEST PLAINS    CLOUDY    68  65  90 S6        29.96R

$$



USA.gov is the U.S. government's official web portal to all federal, state and local government web resources and services.